Showing default

USA 76, 21808

Orbit data source: Space-Track

USA 76, 21808 is an American payload satellite in LEO that was launched on Fri, 08 Nov 1991 UTC via a TITAN 403A launch vehicle from the Air Force Western Test Range (AFWTR). Payload-class satellites include a variety of spacecraft equipped with specific instruments for various scientific and technological missions. These include communications satellites like Starlink; space stations such as the ISS; scientific satellites like the Hubble; Earth observation satellites from companies like Planet Labs, Umbra, and HawkEye 360; GPS; miniature CubeSats for education and research; and military/defense satellites.

Loading next visibility...
Identifier
21808, 1991-076D
Orbit
LEO
Country
Flag of USUS
Related business
Manufacturer
NRL
Mission
Defense Sigint
Bus & Motor
NOSS B SSU, Unknown motor
Mass
~400 kg wet, ~400 kg dry
Launch date (UTC)
1991-11-08 (35 years ago)
Launch vehicle
TITAN 403A
Launch site
Air Force Western Test Range (AFWTR)
Object type
Payload
Rocket body
Debris
Shape & HBR
Cyl, 0.5 m
Radar Cross Section
1.178 m², Large (>1 m²)

Expand to show TLE details & history
Last TLE update: 6 hours ago

TLE from 6 hours ago
0 USA 76
1 21808U 91076D   26150.15734509  .00004950  00000-0  38968-3 0  9995
2 21808  63.2975 201.3531 0884598  74.1473 295.5181 13.59535220103589
Epoch: 2026-05-30T03:46Z
TLE epoch observation values (Epoch: 2026-05-30T03:46:34.615Z)
Latitude
-0.00002°
Longitude
-102.96854°
Altitude
806.408 km
Speed
7.567 km/s
True Right ascension
13h 25m 24s
True Declination
0° 00' 00"
Sunlit
Object was in full shadow at epoch
Visualization orbit readout
Latitude
Unknown
Longitude
Unknown
Altitude
Unknown
Speed
Unknown
Apparent Right ascension
Unknown
Apparent Declination
Unknown
Sunlit
N/A
Visualization observer readout
Local Sidereal Time
18:52:23
Azimuth
Unknown
Elevation
Unknown
Doppler factor
Unknown
Orbital elements
Apogee altitude
1,692.073 km
Perigee altitude
380.331 km
Semi-major axis
7,414.339 km
Eccentricity
0.08846
Inclination
63.2975°
RAAN
201.3531°
Arg. of periapsis
74.1473°
True anomaly
285.95841°
Mean anomaly
295.5181°
Eccentric anomaly
290.77941°
Mean motion
3.39965 °/min
Orbital period
105.89 mins
BSTAR
0.00038968
Loading maneuver chart data...
Computing Atmospheric mass density...
Loading historical data...
Loading historical data...
Loading historical data...
Loading historical data...
Loading historical data...
Loading historical data...
Loading historical data...

Documentation

Showing up to 5 results
|